{"data":{"norad_id":67057,"epoch":"2026-09-20T08:38:47.842944Z","epoch_age_seconds":93771,"freshness":"FRESH","line1":"1 67057U 25294AD  26263.36027596  .00010311  00000+0  38357-3 0  9998","line2":"2 67057  43.0013  18.4959 0001336 277.7081  82.3619 15.27590353 44578","mean_motion":15.27590353,"eccentricity":0.0001336,"inclination_deg":43.0013,"raan_deg":18.4959,"arg_perigee_deg":277.7081,"mean_anomaly_deg":82.3619,"bstar":0.00038357,"rev_number":4457,"period_min":94.266109835796,"perigee_km":482.10144528749,"apogee_km":483.93474592904,"semimajor_km":6861.1550956083,"source":"CELESTRAK","updated_at":"2026-09-21T09:00:36.096689Z"}}